Location: Peterborough
(44.3091°N, 78.3197°W)
Time: 13:48:34
(UTC-04:00)

Envisat - Pass Details

Date: 18 April 2026
Orbit: 761 x 762 km, 98.4° (Epoch: 17 May)

Event Time Altitude Azimuth Distance (km) Brightness Sun altitude
Rises 05:25:16 0° 358° (N) 3,234 6.6 -10.7°
Reaches altitude 10° 05:28:21 10° 338° (NNW) 2,303 5.5 -10.2°
Maximum altitude 05:31:26 17° 300° (WNW) 1,887 4.7 -9.7°
Enters shadow 05:34:28 10° 263° (W) 2,284 4.9 -9.2°
